Fort Bragg, NC

4:19 AM EDT on July 25, 2017 (GMT -0400)
Simmons Army Air Field

Weather History for KFBG - January, 2013

Change the Weather History Date:

Tuesday, January 29, 2013

  Actual Average Record
Temperature  
Mean Temperature 58 °F -  
Max Temperature 75 °F 51 °F 78 °F (2002)
Min Temperature 40 °F 33 °F 16 °F (2014)
Degree Days  
Heating Degree Days 8    
Growing Degree Days 8 (Base 50)    
Moisture  
Dew Point 50 °F    
Average Humidity 82    
Maximum Humidity 100    
Minimum Humidity 51    
Precipitation  
Precipitation 0.00 in - - ()
Sea Level Pressure  
Sea Level Pressure 30.18 in    
Wind  
Wind Speed 3 mph (SSW)    
Max Wind Speed 9 mph    
Max Gust Speed -    
Visibility 8 miles    
Events      
Averages and records for this station are not official NWS values.
T = Trace of Precipitation, MM = Missing Value Source: NWS Daily Summary

Daily Weather History Graph

Daily Weather History Graph

Search for Another Location

Airport or City:

Trip Planner

Search our weather history database for the weather conditions in past years. The results will help you decide how hot, cold, wet, or windy it might be!

Date:

Astronomy

Jan. 29, 2013 Rise Set
Actual Time 7:16 AM EST 5:41 PM EST
Civil Twilight 6:49 AM EST 6:08 PM EST
Nautical Twilight 6:19 AM EST 6:38 PM EST
Astronomical Twilight 5:49 AM EST 7:08 PM EST
Moon 8:26 PM EST (1/29) 8:20 AM EST (1/29)
Length of Visible Light 11h 18m
Length of Day
10h 24m
Waning Gibbous, 94% of the Moon is Illuminated
Jan 29
Waning Gibbous
Feb 3
Last Quarter
Feb 10
New
Feb 17
First Quarter
Feb 25
Full

Hourly Weather History & Observations

Time (EST) Temp. Dew Point Humidity Pressure Visibility Wind Dir Wind Speed Gust Speed Precip Events Conditions
12:55 AM 49.5 °F 47.7 °F 94% 30.25 in 10.0 mi SW 4.6 mph - N/A   Clear
1:55 AM 48.0 °F 46.2 °F 93% 30.25 in 10.0 mi West 4.6 mph - N/A   Clear
2:55 AM 46.8 °F 45.5 °F 95% 30.25 in 10.0 mi SW 3.5 mph - N/A   Clear
3:55 AM 45.1 °F 44.6 °F 98% 30.24 in 10.0 mi Calm Calm - N/A   Clear
4:55 AM 43.3 °F 43.0 °F 99% 30.22 in 9.0 mi Calm Calm - N/A   Clear
5:25 AM 42.8 °F 41.0 °F 93% 30.23 in 1.8 mi Calm Calm - N/A   Clear
5:32 AM 41.0 °F 41.0 °F 100% 30.23 in 2.0 mi Calm Calm - N/A   Clear
5:39 AM 41.0 °F 41.0 °F 100% 30.23 in 3.0 mi Calm Calm - N/A   Clear
5:55 AM 41.4 °F 41.2 °F 99% 30.23 in 3.0 mi Calm Calm - N/A   Clear
6:39 AM 41.0 °F 41.0 °F 100% 30.24 in 1.2 mi Calm Calm - N/A   Clear
6:55 AM 40.6 °F 40.3 °F 99% 30.24 in 4.0 mi Calm Calm - N/A   Clear
7:55 AM 42.3 °F 42.1 °F 99% 30.24 in 5.0 mi Calm Calm - N/A   Clear
8:55 AM 46.8 °F 46.6 °F 99% 30.25 in 10.0 mi Calm Calm - N/A   Clear
9:55 AM 54.3 °F 47.8 °F 79% 30.24 in 10.0 mi Calm Calm - N/A   Clear
10:55 AM 62.1 °F 51.1 °F 67% 30.23 in 10.0 mi SW 6.9 mph - N/A   Clear
11:55 AM 69.1 °F 54.9 °F 60% 30.20 in 10.0 mi WSW 9.2 mph - N/A   Clear
12:55 PM 71.2 °F 55.2 °F 57% 30.16 in 10.0 mi SSW 5.8 mph - N/A   Clear
1:55 PM 71.4 °F 55.4 °F 57% 30.13 in 10.0 mi SW 8.1 mph - N/A   Clear
2:55 PM 75.0 °F 55.6 °F 51% 30.12 in 10.0 mi SW 6.9 mph - N/A   Clear
3:55 PM 75.0 °F 55.6 °F 51% 30.12 in 10.0 mi SW 9.2 mph - N/A   Clear
4:55 PM 73.0 °F 56.1 °F 55% 30.11 in 10.0 mi SW 6.9 mph - N/A   Clear
5:55 PM 69.6 °F 56.3 °F 63% 30.10 in 10.0 mi South 4.6 mph - N/A   Clear
6:55 PM 66.0 °F 56.7 °F 72% 30.10 in 10.0 mi South 4.6 mph - N/A   Clear
7:55 PM 65.3 °F 57.2 °F 75% 30.10 in 10.0 mi South 3.5 mph - N/A   Clear
8:55 PM 63.5 °F 57.2 °F 80% 30.11 in 10.0 mi South 4.6 mph - N/A   Clear
9:55 PM 64.8 °F 58.6 °F 81% 30.10 in 10.0 mi South 6.9 mph - N/A   Partly Cloudy
10:55 PM 63.9 °F 59.0 °F 84% 30.10 in 10.0 mi South 9.2 mph - N/A   Clear
11:55 PM 63.1 °F 59.9 °F 89% 30.09 in 10.0 mi South 9.2 mph - N/A   Clear